Showing default

GREB, 731

Orbit data source: Space-Track

GREB, 731 is an American payload satellite in LEO that was launched on Sat, 11 Jan 1964 UTC via a THOR SLV-2A AGENA D launch vehicle from the Air Force Western Test Range (AFWTR). Payload-class satellites include a variety of spacecraft equipped with specific instruments for various scientific and technological missions. These include communications satellites like Starlink; space stations such as the ISS; scientific satellites like the Hubble; Earth observation satellites from companies like Planet Labs, Umbra, and HawkEye 360; GPS; miniature CubeSats for education and research; and military/defense satellites.

Loading next visibility...
Identifier
731, 1964-001E
Orbit
LEO
Country
Flag of USUS
Related business
Manufacturer
NRL
Mission
Spacecraft
Bus & Motor
NRL 20", Unknown motor
Mass
29 kg wet, 29 kg dry
Launch date (UTC)
1964-01-11 (62 years ago)
Launch vehicle
THOR SLV-2A AGENA D
Launch site
Air Force Western Test Range (AFWTR)
Object type
Payload
Rocket body
Debris
Shape & HBR
Unknown
Radar Cross Section
Medium (>0.1 m² and <1 m²)

Expand to show TLE details & history
Last TLE update: 16 hours ago

TLE from 16 hours ago
0 GREB
1   731U 64001E   26121.43410198  .00000040  00000-0  67893-4 0  9995
2   731  69.9081   7.5254 0011119  88.4879 271.7500 13.96303278171054
Epoch: 2026-05-01T10:25Z
TLE epoch observation values (Epoch: 2026-05-01T10:25:06.411Z)
Latitude
0.00002°
Longitude
-8.11772°
Altitude
908.692 km
Speed
7.398 km/s
True Right ascension
00h 30m 06s
True Declination
0° 00' 00"
Sunlit
Object was in daylight at epoch
Visualization orbit readout
Latitude
Unknown
Longitude
Unknown
Altitude
Unknown
Speed
Unknown
Apparent Right ascension
Unknown
Apparent Declination
Unknown
Sunlit
N/A
Visualization observer readout
Local Sidereal Time
09:49:32
Azimuth
Unknown
Elevation
Unknown
Doppler factor
Unknown
Orbital elements
Apogee altitude
912.774 km
Perigee altitude
896.579 km
Semi-major axis
7,282.814 km
Eccentricity
0.00111
Inclination
69.9081°
RAAN
7.5254°
Arg. of periapsis
88.4879°
True anomaly
271.62264°
Mean anomaly
271.75°
Eccentric anomaly
271.68632°
Mean motion
3.49216 °/min
Orbital period
103.09 mins
BSTAR
0.000067893
Loading maneuver chart data...
Computing Atmospheric mass density...
Loading historical data...
Loading historical data...
Loading historical data...
Loading historical data...
Loading historical data...
Loading historical data...
Loading historical data...
Other satellites on launch #1 in the year 1964 (1964-01-11 UTC)

Documentation

Showing up to 5 results
|